{"data":{"norad_id":63084,"epoch":"2026-09-21T21:27:43.409952Z","epoch_age_seconds":41837,"freshness":"FRESH","line1":"1 63084U 25037H   26264.89425243  .00017699  00000+0  61838-3 0  9995","line2":"2 63084  69.9987 217.2755 0001735 256.8447 103.2534 15.29599387 87913","mean_motion":15.29599387,"eccentricity":0.0001735,"inclination_deg":69.9987,"raan_deg":217.2755,"arg_perigee_deg":256.8447,"mean_anomaly_deg":103.2534,"bstar":0.00061838,"rev_number":8791,"period_min":94.142297142539,"perigee_km":475.81961052866,"apogee_km":478.19834618315,"semimajor_km":6855.1459783559,"source":"CELESTRAK","updated_at":"2026-09-22T09:00:49.758539Z"}}